| time (UTC) | temp C | wind direction | speed KPH | gust KPH | rain 1hr cm | rain 24hr cm | rain mn cm | humidity % | barometer mb |
| 20260503232914 | 11 | 171 | 1.6 | 3.2 | 0.00 | 0.23 | 0.00 | 92 | 1015.3 |
| 20260503231803 | 11 | 186 | 1.6 | 3.2 | 0.00 | 0.23 | 0.00 | 92 | 1015.4 |
| 20260503230903 | 11 | 116 | 1.6 | 3.2 | 0.00 | 0.23 | 0.00 | 92 | 1015.5 |
| 20260503230003 | 11 | 144 | 3.2 | 6.4 | 0.00 | 0.23 | 0.00 | 92 | 1015.6 |
| 20260503225403 | 11 | 190 | 4.8 | 6.4 | 0.00 | 0.23 | 0.23 | 92 | 1015.4 |
| 20260503224503 | 11 | 115 | 3.2 | 6.4 | 0.00 | 0.23 | 0.23 | 92 | 1014.9 |
| 20260503223603 | 11 | 201 | 4.8 | 8.0 | 0.00 | 1.22 | 0.23 | 92 | 1015.2 |
| 20260503222703 | 11 | 192 | 3.2 | 8.0 | 0.00 | 1.22 | 0.23 | 92 | 1015.2 |
| 20260503221803 | 11 | 202 | 3.2 | 4.8 | 0.00 | 1.22 | 0.23 | 92 | 1015.3 |
| 20260503220903 | 11 | 208 | 1.6 | 3.2 | 0.00 | 1.22 | 0.23 | 91 | 1015.0 |
| 20260503220003 | 11 | 193 | 1.6 | 3.2 | 0.00 | 1.22 | 0.23 | 91 | 1015.0 |
| 20260503215403 | 11 | 225 | 0.0 | 3.2 | 0.00 | 1.22 | 0.23 | 91 | 1015.1 |
| 20260503214503 | 11 | 184 | 1.6 | 3.2 | 0.00 | 1.22 | 0.23 | 91 | 1014.8 |
| 20260503213814 | 11 | 219 | 1.6 | 3.2 | 0.00 | 1.22 | 0.23 | 90 | 1014.9 |
| 20260503212703 | 11 | 285 | 1.6 | 3.2 | 0.00 | 1.22 | 0.23 | 90 | 1015.0 |
| 20260503211803 | 11 | 212 | 1.6 | 3.2 | 0.00 | 1.22 | 0.23 | 90 | 1015.0 |
| 20260503210903 | 11 | 190 | 3.2 | 6.4 | 0.00 | 1.22 | 0.23 | 90 | 1014.7 |
| 20260503210003 | 11 | 204 | 3.2 | 6.4 | 0.00 | 1.22 | 0.23 | 90 | 1014.7 |
| 20260503205403 | 11 | 194 | 4.8 | 6.4 | 0.00 | 1.22 | 0.23 | 90 | 1014.6 |
| 20260503204503 | 11 | 216 | 4.8 | 6.4 | 0.00 | 1.22 | 0.23 | 90 | 1014.5 |
| 20260503203603 | 11 | 195 | 3.2 | 6.4 | 0.00 | 1.22 | 0.23 | 90 | 1014.6 |
| 20260503202703 | 11 | 191 | 4.8 | 6.4 | 0.00 | 1.22 | 0.23 | 90 | 1014.5 |
| 20260503201803 | 11 | 196 | 4.8 | 6.4 | 0.00 | 1.22 | 0.23 | 90 | 1014.3 |
| 20260503200903 | 11 | 216 | 4.8 | 6.4 | 0.00 | 1.22 | 0.23 | 90 | 1014.2 |
| 20260503200003 | 11 | 195 | 6.4 | 6.4 | 0.00 | 1.22 | 0.23 | 90 | 1014.1 |
| 20260503195403 | 11 | 190 | 4.8 | 6.4 | 0.00 | 1.22 | 0.23 | 90 | 1014.1 |
| 20260503194503 | 11 | 195 | 4.8 | 8.0 | 0.00 | 1.22 | 0.23 | 89 | 1013.8 |
| 20260503193813 | 11 | 190 | 6.4 | 8.0 | 0.00 | 1.22 | 0.23 | 88 | 1013.9 |
| 20260503192703 | 12 | 187 | 6.4 | 6.4 | 0.00 | 1.22 | 0.23 | 87 | 1013.8 |
| 20260503191803 | 12 | 204 | 4.8 | 8.0 | 0.00 | 1.22 | 0.23 | 85 | 1013.8 |
| 20260503190903 | 12 | 212 | 4.8 | 6.4 | 0.00 | 1.22 | 0.23 | 81 | 1013.6 |
| 20260503190003 | 13 | 182 | 4.8 | 6.4 | 0.00 | 1.22 | 0.23 | 80 | 1013.7 |
| 20260503185403 | 13 | 179 | 4.8 | 6.4 | 0.00 | 1.22 | 0.23 | 79 | 1013.5 |
| 20260503184503 | 13 | 239 | 4.8 | 6.4 | 0.00 | 1.22 | 0.23 | 79 | 1013.4 |
| 20260503183603 | 13 | 214 | 4.8 | 6.4 | 0.00 | 1.22 | 0.23 | 79 | 1013.5 |
| 20260503182704 | 13 | 175 | 4.8 | 6.4 | 0.00 | 1.22 | 0.23 | 78 | 1013.5 |
| 20260503181803 | 13 | 180 | 6.4 | 6.4 | 0.00 | 1.22 | 0.23 | 78 | 1013.3 |
| 20260503180903 | 14 | 224 | 4.8 | 8.0 | 0.00 | 1.22 | 0.23 | 78 | 1013.1 |
| 20260503180215 | 14 | 214 | 4.8 | 6.4 | 0.00 | 1.22 | 0.23 | 77 | 1013.3 |
| 20260503175403 | 14 | 124 | 4.8 | 8.0 | 0.00 | 1.22 | 0.23 | 79 | 1013.0 |
| 20260503174503 | 13 | 197 | 4.8 | 8.0 | 0.00 | 1.22 | 0.23 | 80 | 1013.3 |
| 20260503173813 | 13 | 208 | 6.4 | 12.9 | 0.00 | 1.27 | 0.23 | 80 | 1013.1 |
| 20260503172703 | 13 | 197 | 6.4 | 8.0 | 0.00 | 1.27 | 0.23 | 80 | 1012.9 |
| 20260503171803 | 13 | 203 | 4.8 | 6.4 | 0.00 | 1.27 | 0.23 | 80 | 1013.1 |
| 20260503170903 | 13 | 275 | 4.8 | 8.0 | 0.00 | 1.27 | 0.23 | 80 | 1013.3 |
| 20260503160214 | 13 | 195 | 8.0 | 12.9 | 0.00 | 1.42 | 0.23 | 82 | 1013.1 |
| 20260503150903 | 14 | 207 | 8.0 | 12.9 | 0.00 | 1.52 | 0.23 | 78 | 1013.1 |
| 20260503130903 | 15 | 249 | 8.0 | 11.3 | 0.00 | 2.16 | 0.23 | 74 | 1013.4 |
| 20260503090213 | 14 | 83 | 3.2 | 4.8 | 0.00 | 2.21 | 0.23 | 94 | 1013.6 |
| 20260503081113 | 11 | 109 | 3.2 | 6.4 | 0.00 | 2.21 | 0.23 | 100 | 1013.6 |
| 20260503072703 | 11 | 42 | 3.2 | 4.8 | 0.00 | 2.21 | 0.23 | 100 | 1013.5 |
| 20260503071803 | 11 | 61 | 3.2 | 4.8 | 0.00 | 2.21 | 0.23 | 100 | 1013.3 |